Dewpoint
45 43 42 41 42 42 41 41 40 36 37 37 37 36 36 36 35 35 35 36 37 32 32 32 32 32 33 34 34 34 34 35 35 35 35 36 36 36 37 37 38 38 38 41 42 41 40 40 44 52 56 58 58 58 58 57 57 57 56 56 57 57 58 58 59 60 60 60 60 60 60 59 59 59 60 59 60 60 60 60 60 59 59 59 59 59
44 42 42 43 44 43 42 41 40 37 37 37 36 36 36 36 36 36 36 37 38 33 32 33 31 32 32 32 33 33 34 34 34 34 35 35 35 36 37 37 38 38 40 41 40 40 40 40 42 46 53 56 58 58 58 57 57 57 56 56 56 57 57 58 58 59 59 59 60 59 59 59 60 59 59 59 59 59 60 60 60 60 59 59 59 58
42 41 42 43 43 43 42 41 41 40 36 35 36 35 34 35 34 35 36 37 36 33 33 34 34 35 35 34 34 33 33 33 34 34 34 34 35 36 36 37 38 38 39 39 39 40 39 42 42 42 47 54 56 57 58 58 58 57 56 56 56 56 57 57 58 58 58 59 59 59 59 59 59 60 59 59 59 59 59 59 60 59 59 59 59 59
39 42 42 42 41 41 40 41 40 39 37 36 36 36 35 34 36 35 36 36 36 35 35 35 35 35 36 37 37 38 36 35 35 35 35 35 35 35 35 36 37 38 39 40 40 40 40 40 39 41 42 47 54 56 57 58 58 57 56 56 56 56 56 57 57 57 58 58 59 59 59 59 59 58 59 59 59 59 59 59 59 59 59 59 59 59
40 42 43 41 41 40 39 39 39 39 38 36 37 35 34 34 36 36 35 35 35 36 34 35 35 36 36 36 37 37 38 38 38 38 37 38 39 38 40 41 40 38 39 40 40 41 41 41 39 39 40 43 48 53 55 57 58 57 57 57 57 56 56 57 56 57 57 58 58 59 58 58 58 58 58 58 58 58 58 58 59 59 59 59 59 59
41 42 42 41 40 40 38 37 39 39 38 37 36 38 37 36 35 35 34 35 34 34 34 33 32 30 34 36 36 36 37 37 38 38 38 38 39 39 39 39 40 42 42 41 40 41 41 41 42 41 40 41 44 47 52 55 56 57 57 57 57 57 56 56 57 57 57 57 57 58 57 57 57 57 57 56 57 58 58 58 59 59 59 59 59 59
41 42 42 41 40 39 38 38 39 40 38 37 37 38 36 36 37 35 34 36 32 32 33 34 31 28 31 31 34 36 36 36 37 38 38 38 38 38 39 39 39 40 40 41 41 41 41 41 42 42 41 40 41 43 47 51 54 56 57 57 57 56 56 57 57 57 56 57 57 57 57 56 56 56 57 57 57 57 58 58 58 58 59 59 59 59
42 42 42 42 40 39 38 38 38 39 37 36 37 38 37 36 36 36 35 36 33 33 34 34 32 32 32 32 33 34 34 33 35 36 37 37 38 38 38 38 39 40 39 40 40 40 41 41 41 41 42 41 40 42 46 49 52 54 56 57 57 57 56 56 57 57 57 57 57 57 57 56 56 56 56 57 57 58 58 58 58 58 58 59 59 59
41 41 41 41 40 39 38 39 39 39 37 35 37 39 37 37 36 35 37 34 34 34 34 34 32 32 31 31 34 34 33 33 33 33 34 35 36 37 37 37 38 38 39 39 40 40 40 40 41 41 41 42 42 42 44 47 50 53 55 56 57 57 56 56 57 57 57 56 57 57 57 56 56 56 56 57 58 57 57 58 58 58 58 58 59 59
43 42 41 41 40 39 40 40 39 39 37 36 39 39 38 37 35 37 35 37 34 34 32 33 34 30 28 28 29 32 32 30 30 32 33 34 34 35 35 36 37 37 39 40 39 40 40 41 41 42 42 42 42 42 43 45 49 51 54 55 56 57 57 56 56 56 57 57 56 57 57 57 56 56 56 57 57 58 58 57 58 58 58 58 58 58
44 44 43 42 41 40 41 40 40 39 38 40 40 38 36 33 33 31 34 35 34 32 33 33 33 32 27 27 26 29 31 31 30 30 31 32 34 34 35 36 37 37 38 39 39 40 40 40 41 41 41 42 43 43 43 44 46 49 52 54 55 56 57 57 56 56 56 57 57 57 57 57 56 56 56 57 57 57 57 57 57 58 57 58 58 58
42 43 43 43 42 41 41 40 41 41 41 40 35 36 38 36 35 34 32 34 31 29 33 34 33 33 29 28 27 28 32 32 30 29 30 31 32 34 35 35 36 36 37 38 38 38 39 39 39 40 40 40 41 42 42 42 45 47 50 52 54 55 56 57 57 56 56 57 57 57 57 57 57 56 56 56 56 56 56 57 56 57 57 57 58 58
40 40 42 42 43 42 41 40 40 41 42 40 39 38 33 30 34 29 34 29 31 29 31 34 34 32 32 31 29 30 32 33 33 32 32 32 33 34 34 35 37 38 38 38 38 39 39 39 39 39 38 39 40 41 41 42 43 45 48 51 52 53 55 57 57 56 56 56 57 57 57 57 56 57 56 56 56 56 56 56 56 57 56 57 57 57
38 41 41 41 43 44 41 39 38 38 41 40 37 36 31 29 29 25 30 32 31 33 33 32 33 30 31 31 33 33 34 34 34 34 35 35 35 35 36 37 37 38 38 38 38 39 39 39 39 39 39 39 39 40 41 41 41 43 47 49 52 52 54 56 57 57 56 56 56 57 57 57 56 56 57 56 56 56 56 56 56 56 56 56 56 57
32 33 38 40 38 43 41 39 40 38 40 39 39 36 32 30 30 25 25 26 28 29 30 32 29 26 30 29 32 32 33 34 34 35 35 35 35 36 36 37 37 37 36 37 37 37 37 37 37 38 38 38 39 39 40 40 41 42 45 48 51 52 53 56 57 57 57 56 56 56 57 57 57 57 56 56 57 57 56 56 56 56 56 56 56 56
34 33 40 42 42 42 40 41 41 41 39 41 40 39 35 31 32 28 23 26 29 28 27 29 30 29 24 27 32 33 33 33 34 34 34 34 34 36 36 36 36 36 36 37 37 37 37 37 37 38 38 39 39 39 40 41 41 42 43 46 49 51 52 55 56 57 57 57 56 56 56 57 56 56 56 56 56 56 57 57 56 56 56 56 56 56
34 33 39 41 43 41 41 40 41 41 34 39 40 36 35 36 32 28 28 25 25 23 26 25 30 31 32 30 29 29 30 32 33 33 34 34 34 35 35 36 36 36 37 37 38 37 37 37 37 37 37 38 39 40 40 41 41 41 42 45 48 51 53 55 55 56 57 57 58 57 56 56 57 56 56 56 56 56 57 57 57 57 56 56 56 57
34 33 39 40 39 41 42 42 43 41 43 41 37 39 40 40 37 31 26 26 25 23 21 29 26 26 26 24 26 26 25 25 31 32 32 33 35 34 35 36 36 37 37 38 38 38 38 37 37 37 38 37 38 38 39 40 41 42 42 43 46 49 52 54 55 56 57 58 58 58 57 57 57 56 57 57 56 57 57 57 57 57 57 57 57 57
38 31 35 40 40 40 43 44 42 43 43 40 39 43 36 33 32 33 31 25 23 24 23 25 26 25 26 23 24 23 27 26 27 30 31 31 31 32 33 34 34 35 37 38 38 38 38 38 38 38 38 38 37 38 39 40 41 43 43 45 47 48 50 53 55 56 56 57 57 58 57 57 57 57 57 57 57 57 57 57 57 57 57 57 57 56
36 32 33 39 40 40 42 42 34 39 43 43 42 42 40 38 34 32 31 30 29 24 23 24 24 23 27 25 25 24 24 26 25 29 30 30 30 31 31 33 33 34 35 36 37 38 38 38 38 38 38 37 37 37 38 39 40 40 42 44 46 48 50 51 53 55 56 57 57 58 58 58 58 57 57 57 57 57 57 57 57 57 57 57 57 56
33 35 30 35 40 40 36 39 36 38 37 38 40 37 37 36 37 38 34 32 30 27 26 24 23 24 26 26 26 26 25 25 25 25 28 30 30 31 32 33 33 33 34 35 36 35 35 36 36 36 35 35 35 35 35 37 38 39 41 43 45 46 48 50 52 54 55 56 57 57 57 58 58 58 58 58 58 57 57 57 57 57 57 57 57 56
33 34 31 34 34 36 38 41 40 39 40 39 38 38 38 36 34 31 29 34 32 29 26 25 24 27 28 27 26 26 26 26 27 27 28 29 31 32 33 33 33 34 34 35 35 34 35 34 34 35 35 34 34 36 36 37 37 38 39 41 43 45 47 49 50 52 53 54 55 56 57 57 57 58 58 58 58 57 57 57 57 57 57 56 57 56
38 33 33 32 33 36 38 39 40 40 42 41 39 37 39 37 36 32 29 31 32 33 31 27 24 27 30 28 25 25 26 25 27 30 29 30 31 32 33 34 34 34 35 34 34 34 34 34 35 35 35 35 36 36 36 36 37 38 39 40 41 43 45 47 49 50 52 53 54 55 56 56 56 57 57 57 58 57 57 57 57 57 56 56 57 56
38 32 32 32 33 35 37 39 39 39 41 40 40 39 40 38 36 34 32 32 32 32 31 30 29 29 32 30 28 28 29 29 30 31 31 31 32 33 34 34 35 35 36 34 33 33 33 33 34 34 34 35 36 36 36 36 37 37 38 39 39 40 42 44 46 47 48 50 52 53 53 54 55 54 55 56 57 57 57 57 57 57 57 57 56 55
32 32 32 29 29 31 33 35 36 37 38 37 37 40 40 40 39 36 33 30 31 32 32 31 27 30 33 30 28 26 26 26 27 27 31 32 32 34 34 35 35 34 33 32 32 32 32 33 33 33 34 35 36 36 36 36 37 37 37 37 38 39 39 40 41 43 46 47 49 49 50 51 52 52 53 54 55 55 56 56 56 56 56 56 56 56
32 31 31 26 23 23 24 25 28 31 34 36 38 38 39 39 38 37 34 34 31 33 33 31 30 32 32 33 35 30 30 33 32 28 28 29 30 30 31 32 31 31 31 30 31 32 32 31 33 33 34 34 36 36 36 36 36 37 37 38 37 37 37 36 36 38 41 43 45 47 47 49 50 50 52 53 53 54 54 54 53 54 54 55 57 55
28 30 32 28 25 24 25 28 31 35 33 32 34 36 37 39 40 39 36 33 32 33 32 33 34 34 33 33 34 34 32 33 33 33 33 32 29 29 29 30 30 30 30 29 30 31 32 32 31 31 32 33 35 34 35 35 36 36 36 37 36 36 36 36 36 36 38 40 42 45 46 47 48 49 50 50 51 50 49 50 51 51 53 53 55 55
25 30 32 31 28 26 26 27 30 34 32 34 33 34 36 36 37 36 33 31 37 33 30 34 35 33 33 34 35 35 31 31 33 31 28 26 27 28 28 28 31 28 27 28 28 29 30 31 31 31 31 32 33 35 35 34 35 35 35 36 36 35 35 36 35 36 36 37 39 41 44 45 46 46 47 47 47 48 49 49 49 50 51 51 52 54
31 30 31 31 31 31 30 28 32 31 31 33 33 33 34 35 35 34 34 36 36 33 31 36 36 34 37 38 37 36 34 33 33 33 32 28 26 27 27 28 28 29 29 29 30 30 29 30 30 30 30 32 33 33 33 34 34 34 34 34 34 34 35 35 36 37 37 37 38 39 40 41 41 43 44 45 47 47 48 48 48 48 49 49 50 51
31 30 29 31 31 31 31 30 30 31 31 31 33 34 34 35 36 36 36 36 37 35 36 36 36 35 38 38 36 33 33 34 32 30 28 30 30 31 29 29 30 31 32 32 32 31 31 30 30 30 31 31 31 32 32 33 34 34 35 35 35 34 35 35 35 36 37 37 39 40 39 38 38 40 42 44 45 46 46 46 46 46 46 47 48 49
34 30 33 29 29 30 31 31 29 30 30 30 31 33 34 35 37 37 37 36 36 36 37 36 36 35 36 36 35 34 35 33 35 36 36 36 34 33 33 34 35 35 35 35 34 32 31 30 30 30 30 29 29 29 30 31 33 34 34 35 35 35 34 35 35 36 36 37 38 38 37 38 38 38 40 41 43 43 43 45 43 43 44 44 44 45
33 30 31 29 29 28 29 29 29 29 29 30 30 30 30 32 33 35 36 37 36 35 36 36 35 35 36 36 37 37 37 37 37 38 38 38 38 37 37 37 38 38 38 37 36 35 35 34 34 31 29 29 29 29 30 31 32 33 33 34 35 35 35 35 35 36 36 37 37 37 38 38 37 37 38 39 40 41 41 41 41 42 42 42 42 42
31 30 29 30 29 28 30 29 29 28 28 28 29 31 31 32 34 35 37 38 37 37 35 34 35 36 36 37 37 36 36 37 37 37 38 39 39 39 39 38 39 39 38 37 36 35 35 35 34 34 34 32 33 33 32 31 31 32 32 33 35 35 35 35 35 36 36 37 37 38 38 38 38 38 38 38 39 40 40 40 41 41 41 42 42 40
32 31 30 30 28 29 29 26 28 28 23 24 33 34 33 32 32 32 33 35 37 38 36 36 36 36 37 37 37 36 36 36 37 38 39 39 39 39 39 39 39 38 37 37 36 35 35 36 36 35 34 33 33 32 31 31 30 31 33 33 33 34 35 35 35 36 36 37 37 38 38 38 38 38 38 38 38 39 39 40 41 41 41 41 40 41
33 32 31 30 27 27 25 26 25 21 23 36 35 35 34 33 32 33 33 33 35 36 37 37 37 38 38 37 37 37 38 38 38 37 37 38 39 39 39 39 38 37 37 37 37 37 37 36 36 36 35 34 34 33 33 33 32 33 34 34 34 34 35 35 35 36 37 37 37 38 38 39 39 39 39 38 38 38 39 40 41 40 40 41 41 41
33 33 33 32 29 25 25 26 20 19 30 32 32 33 34 34 33 33 32 33 34 34 36 36 37 37 38 38 38 38 38 35 34 35 36 36 37 37 37 37 37 37 37 37 37 38 38 37 37 36 36 35 34 34 34 34 34 33 33 34 34 34 34 35 35 36 36 36 37 37 38 38 39 39 38 38 37 38 38 39 40 41 40 40 40 40
34 33 32 28 31 25 25 25 24 28 27 26 27 28 33 32 32 32 30 31 33 34 35 35 36 37 37 38 38 38 38 36 36 37 37 36 37 37 37 37 38 38 38 38 39 39 38 37 36 35 35 35 35 35 36 36 36 35 34 35 35 33 34 34 34 35 36 36 37 37 37 38 38 38 38 38 37 37 38 38 39 39 39 39 40 40
35 33 32 29 27 29 25 24 23 23 21 23 28 30 30 33 33 34 32 30 33 33 34 35 35 35 36 37 38 38 33 33 35 35 34 35 37 38 38 39 39 39 39 38 37 37 37 37 37 37 36 35 36 36 36 35 35 34 34 34 35 34 34 34 34 35 35 36 36 37 37 37 38 38 38 37 38 38 38 38 38 38 38 39 39 40
32 33 28 30 28 29 27 23 22 21 22 26 27 28 29 31 34 32 30 30 33 34 35 35 35 35 36 36 36 37 33 32 33 33 34 35 37 37 38 38 38 37 37 37 37 37 37 37 36 35 35 35 35 36 36 35 34 34 34 34 34 34 33 34 34 35 35 35 36 37 36 36 37 37 38 38 38 38 38 37 37 38 37 38 39 38
30 29 29 27 25 24 26 25 21 21 20 25 28 29 29 32 32 32 24 25 32 33 34 35 35 35 36 36 36 35 33 32 32 33 33 34 35 35 36 37 37 37 37 37 37 35 36 35 35 36 36 36 36 36 36 35 34 34 33 33 33 33 33 33 34 34 35 35 36 36 36 36 36 36 37 37 37 37 37 37 37 37 37 37 38 39
28 27 28 24 25 25 26 21 22 23 25 27 28 30 29 31 34 29 23 30 32 31 33 34 34 35 35 34 32 33 34 34 35 36 36 35 36 37 37 36 36 36 36 36 37 35 35 36 36 36 36 36 36 36 36 35 35 35 34 34 33 33 34 34 34 34 35 35 36 35 35 36 36 36 36 37 37 37 36 37 37 37 36 36 37 37
28 28 27 24 21 22 23 22 20 21 24 26 25 31 29 29 24 27 31 33 32 30 31 34 34 35 34 34 34 34 36 37 37 37 37 37 37 37 37 36 35 34 33 34 34 35 35 35 35 35 34 35 35 35 35 35 34 34 34 34 34 34 34 34 34 34 35 35 35 35 35 34 35 35 36 35 36 36 36 36 36 36 36 37 37 36
26 25 23 23 21 16 13 15 17 16 23 27 28 25 27 26 27 29 31 33 31 31 33 34 34 33 32 32 34 36 35 34 35 35 36 36 36 35 35 34 33 33 33 33 32 33 34 34 34 34 34 35 35 35 35 33 33 34 34 33 33 34 34 35 35 35 35 35 35 34 34 34 34 34 35 35 36 36 36 35 35 36 36 36 36 35
28 22 24 25 24 19 20 18 18 21 20 28 26 22 27 30 29 30 28 26 27 29 31 31 30 33 33 33 32 33 33 34 34 34 34 34 33 33 33 32 31 31 31 31 32 32 32 32 32 32 32 33 34 34 34 34 33 33 33 33 33 34 34 35 35 35 34 34 34 34 34 34 34 34 34 35 35 36 35 35 35 35 36 36 36 36
25 22 25 22 26 21 19 21 22 21 25 27 27 24 25 29 28 28 28 27 27 28 29 29 27 30 32 32 33 33 33 33 33 33 32 31 30 30 30 30 30 30 30 30 30 31 31 30 29 30 31 31 32 33 34 33 33 33 32 32 33 33 34 34 34 34 33 34 34 33 33 33 33 34 34 35 35 35 36 35 35 35 36 36 36 36
19 25 20 23 24 21 23 23 24 24 24 24 25 25 25 25 26 27 27 27 28 28 28 27 28 29 30 31 30 30 32 33 33 32 31 30 30 30 29 29 28 28 29 29 29 28 29 30 30 30 30 29 30 31 32 33 33 32 32 32 33 33 34 34 33 33 33 33 33 33 33 33 33 33 34 34 35 35 36 36 35 36 36 36 36 37
20 23 20 20 19 24 21 24 25 25 25 24 25 25 25 25 25 25 25 25 27 28 28 29 29 30 31 31 31 30 31 30 31 32 32 30 28 26 26 27 27 27 27 27 27 29 29 30 30 30 29 29 28 30 31 32 32 32 33 33 33 33 33 33 33 33 33 33 33 33 33 33 33 33 34 34 35 36 36 36 36 35 36 36 36 36
19 23 24 22 22 22 21 24 24 25 24 25 26 26 26 25 25 25 26 25 26 27 28 28 29 29 29 29 29 29 29 29 28 29 28 28 27 27 27 26 26 25 25 26 27 29 30 31 30 29 29 28 27 29 31 32 32 33 33 33 33 33 33 33 33 33 33 33 33 33 33 33 32 33 34 34 35 35 36 36 36 36 36 36 36 37
18 23 17 20 22 22 21 21 22 21 19 20 22 23 26 26 25 24 24 24 24 24 25 27 28 27 27 27 27 28 27 27 27 27 26 27 27 26 26 26 26 26 25 26 28 30 30 30 30 29 29 29 28 30 32 32 32 33 33 33 33 33 33 33 32 33 33 33 33 33 33 33 33 33 33 34 34 35 36 36 36 36 36 36 36 37
18 19 19 20 14 16 19 19 18 13 18 17 19 21 22 24 25 25 24 23 23 23 24 23 24 25 27 27 27 27 26 26 25 25 25 25 26 26 26 26 25 26 26 27 29 30 30 30 30 29 29 29 29 31 32 32 33 33 33 33 33 33 32 32 32 32 33 33 33 33 33 33 33 33 33 34 34 34 35 35 35 36 36 36 35 35
19 19 19 17 16 14 15 17 19 18 18 18 17 19 20 23 24 23 22 22 23 23 23 23 23 23 23 23 26 26 26 25 25 25 25 25 25 25 25 25 26 25 25 27 29 29 29 29 29 30 30 30 31 32 32 32 33 33 33 33 33 33 32 32 32 32 32 32 32 33 33 33 33 33 33 34 34 34 34 35 35 35 35 35 35 35